Regional Weather Roundup
Issued by NWS

Home | Current Version | Previous Version | Text Only | Print | Product List | Glossary Off
Versions: 1 2 3 4 5 6 7 8 9 10 11 12 13 14 15 16 17 18 19 20 21 22 23 24 25 26 27 28 29 30 31 32 33 34 35 36 37 38 39 40 41 42 43 44 45 46 47 48 49 50

000
ASUS43 KLMK 240310
RWRKY
KENTUCKY REGIONAL WEATHER ROUNDUP
NATIONAL WEATHER SERVICE LOUISVILLE KY
1100 PM EDT WED APR 23 2014

NOTE "FAIR" INDICATES FEW OR NO CLOUDS BELOW 12,000 FEET
WITH NO SIGNIFICANT WEATHER AND/OR OBSTRUCTIONS TO VISIBILITY.

KYZ001>023-026-027-061>063-070>075-240400-
WESTERN AND SOUTH CENTRAL KENTUCKY

CITY           SKY/WX    TMP DP  RH WIND       PRES   REMARKS
PADUCAH        CLEAR     55  38  52 E6        29.99F
HENDERSON      MOCLDY    55  43  62 E5        30.01F
OWENSBORO      PTCLDY    58  30  34 E7        30.03S
HOPKINSVILLE   CLEAR     54  37  52 NE6       30.02R
BOWLING GREEN  PTCLDY    51  33  50 NE6       30.04S
GLASGOW        CLEAR     51  34  52 CALM      30.04S
$$

KYZ024-025-028>034-038-045-046-053-240400-
NORTH CENTRAL KENTUCKY

CITY           SKY/WX    TMP DP  RH WIND       PRES   REMARKS
LOUISVILLE/SDF CLEAR     56  32  40 NE5       30.07R
LOUISVILLE/LOU CLEAR     58  31  35 CALM      30.07R
FORT KNOX      MOCLDY    54  33  43 NE2       30.05R
$$

KYZ035>037-039>044-047>052-055>060-089>105-240400-
NORTHEAST KENTUCKY

CITY           SKY/WX    TMP DP  RH WIND       PRES   REMARKS
LEXINGTON      CLEAR     50  32  50 NE6       30.07S
COVINGTON      PTCLDY    54  31  41 NE10      30.08S
FRANKFORT      CLEAR     47  36  65 CALM      30.06S
$$

KYZ054-064>069-076>088-106>120-240400-
SOUTHEAST KENTUCKY

CITY           SKY/WX    TMP DP  RH WIND       PRES   REMARKS
JACKSON        CLEAR     52  30  43 N5        30.07R
LONDON         CLEAR     52  33  48 CALM      30.07R
SOMERSET       CLEAR     50  32  50 CALM      30.08S
MIDDLESBORO    CLEAR     48  37  67 CALM      30.06R
MONTICELLO     CLEAR     49  37  63 CALM      30.08R
$$




USA.gov is the U.S. government's official web portal to all federal, state and local government web resources and services.